Weather History for Roatan, Honduras

Change the Weather History Date:

Friday, May 3, 2013

  Actual Average Record
Temperature  
Mean Temperature 81 °F -  
Max Temperature 86 °F 86 °F 90 °F (2012)
Min Temperature 76 °F 78 °F 75 °F (2014)
Cooling Degree Days 16    
Growing Degree Days 31 (Base 50)    
Moisture  
Dew Point 73 °F    
Average Humidity 73    
Maximum Humidity 83    
Minimum Humidity 61    
Precipitation  
Precipitation 0.00 in - - ()
Sea Level Pressure  
Sea Level Pressure 29.90 in    
Wind  
Wind Speed 8 mph ()    
Max Wind Speed 12 mph    
Max Gust Speed -    
Visibility 6.8 miles    
Events      
Averages and records for this station are not official NWS values.
T = Trace of Precipitation, MM = Missing Value Source: Averaged Metar Reports

Daily Weather History Graph

Daily Weather History Graph

Search for Another Location

Airport:

Trip Planner

Search our weather history database for the weather conditions in past years. The results will help you decide how hot, cold, wet, or windy it might be!

Date:

Astronomy

May. 03, 2013 Rise Set
Actual Time 5:20 AM CST 6:05 PM CST
Civil Twilight 4:57 AM CST 6:28 PM CST
Nautical Twilight 4:31 AM CST 6:54 PM CST
Astronomical Twilight 4:04 AM CST 7:21 PM CST
Moon 12:47 AM CST (5/3) 12:52 PM CST (5/3)
Length of Visible Light 13h 30m
Length of Day
12h 45m
Last Quarter, 36% of the Moon is Illuminated
May 3
Last Quarter
May 9
New
May 17
First Quarter
May 24
Full
May 31
Last Quarter

Hourly Weather History & Observations

Time (CST) Temp. Heat Index Dew Point Humidity Pressure Visibility Wind Dir Wind Speed Gust Speed Precip Events Conditions
6:00 AM 79 °F - 73 °F 77% 29.87 in 9 mi West 11.5 mph - -   Haze
6:00 AM 78.8 °F - 73.4 °F 83% 29.86 in 6.2 mi West 11.5 mph - N/A   Overcast
7:00 AM 80.6 °F 85.4 °F 73.4 °F 79% 29.89 in 6.2 mi WNW 8.1 mph - N/A   Overcast
8:00 AM 80.6 °F 85.4 °F 73.4 °F 79% 29.92 in 6.2 mi West 9.2 mph - N/A   Mostly Cloudy
9:00 AM 82 °F - 74 °F 72% 29.93 in 9 mi WNW 6.9 mph - -   Haze
9:00 AM 82.4 °F 89.5 °F 75.2 °F 79% 29.92 in 6.2 mi WNW 6.9 mph - N/A   Overcast
10:00 AM 84.2 °F 92.3 °F 75.2 °F 74% 29.95 in 6.2 mi WNW 8.1 mph - N/A   Overcast
11:00 AM 82.4 °F 89.5 °F 75.2 °F 79% 29.95 in 6.2 mi WNW 11.5 mph - N/A   Mostly Cloudy
12:00 PM 84 °F - 74 °F 65% 29.93 in 7 mi NNW 9.2 mph - -   Haze
12:00 PM 84.2 °F 90.9 °F 73.4 °F 70% 29.92 in 6.2 mi NNW 9.2 mph - N/A   Mostly Cloudy
1:00 PM 84.2 °F 90.9 °F 73.4 °F 70% 29.92 in 6.2 mi WNW 9.2 mph - N/A   Mostly Cloudy
2:00 PM 82.4 °F 88.2 °F 73.4 °F 74% 29.89 in 6.2 mi WNW 10.4 mph - N/A   Mostly Cloudy
3:00 PM 85 °F - 73 °F 61% 29.89 in 9 mi NNW 5.8 mph - -   Haze
3:00 PM 86.0 °F 93.4 °F 73.4 °F 66% 29.89 in 6.2 mi NNW 5.8 mph - N/A   Mostly Cloudy
4:00 PM 84.2 °F 90.9 °F 73.4 °F 70% 29.86 in 6.2 mi NNW 10.4 mph - N/A   Mostly Cloudy
5:00 PM 82.4 °F 88.2 °F 73.4 °F 74% 29.89 in 6.2 mi North 10.4 mph - N/A   Mostly Cloudy
6:00 PM 81 °F - 71 °F 66% 29.91 in 9 mi North 9.2 mph - -   Haze
6:00 PM 80.6 °F 84.6 °F 71.6 °F 74% 29.89 in 6.2 mi North 9.2 mph - N/A   Scattered Clouds
7:00 PM 80.6 °F 84.6 °F 71.6 °F 74% 29.89 in 6.2 mi North 5.8 mph - N/A   Scattered Clouds
8:00 PM 78.8 °F - 71.6 °F 78% 29.92 in 6.2 mi North 3.5 mph - N/A   Mostly Cloudy